Sumburgh, United Kingdom

6:35 PM BST on August 20, 2017 (GMT +0100)
Sumburgh

Weather History for EGPB - February, 2013

Change the Weather History Date:

Monday, February 18, 2013

  Actual Average Record
Temperature  
Mean Temperature 42 °F -  
Max Temperature 48 °F 42 °F 50 °F (1998)
Min Temperature 37 °F 37 °F 30 °F (2014)
Degree Days  
Heating Degree Days 22    
Moisture  
Dew Point 41 °F    
Average Humidity 93    
Maximum Humidity 100    
Minimum Humidity 81    
Precipitation  
Precipitation 0.00 in - - ()
Sea Level Pressure  
Sea Level Pressure 30.07 in    
Wind  
Wind Speed 2 mph ()    
Max Wind Speed 10 mph    
Max Gust Speed -    
Visibility 4.9 miles    
Events Fog    
Averages and records for this station are not official NWS values.
T = Trace of Precipitation, MM = Missing Value Source: Averaged Metar Reports

Daily Weather History Graph

Daily Weather History Graph

Search for Another Location

Airport or City:

Trip Planner

Search our weather history database for the weather conditions in past years. The results will help you decide how hot, cold, wet, or windy it might be!

Date:

Astronomy

Feb. 18, 2013 Rise Set
Actual Time 7:34 AM GMT 5:04 PM GMT
Civil Twilight 6:51 AM GMT 5:48 PM GMT
Nautical Twilight 6:02 AM GMT 6:36 PM GMT
Astronomical Twilight 5:15 AM GMT 7:24 PM GMT
Moon 9:53 AM GMT (2/18) 2:45 AM GMT (2/18)
Length of Visible Light 10h 56m
Length of Day
9h 30m
First Quarter, 56% of the Moon is Illuminated
Feb 18
First Quarter
Feb 25
Full
Mar 4
Last Quarter
Mar 11
New
Mar 19
First Quarter

Hourly Weather History & Observations

Time (GMT) Temp. Windchill Dew Point Humidity Pressure Visibility Wind Dir Wind Speed Gust Speed Precip Events Conditions
12:20 AM 41.0 °F - 39.2 °F 93% 30.04 in 0.2 mi Calm Calm - N/A Fog Fog
12:50 AM 41.0 °F 39.0 °F 41.0 °F 100% 30.04 in 1.4 mi WSW 3.5 mph - N/A   Mist
1:20 AM 42.8 °F - 41.0 °F 93% 30.06 in 1.7 mi WSW 2.3 mph - N/A   Mist
1:50 AM 41.0 °F - 41.0 °F 100% 30.06 in - West 2.3 mph - N/A   Mist
2:20 AM 41.0 °F - 39.2 °F 93% 30.06 in 3.1 mi Calm Calm - N/A   Unknown
2:50 AM 39.2 °F - 37.4 °F 93% 30.06 in - Calm Calm - N/A   Mist
3:20 AM 37.4 °F - 37.4 °F 100% 30.04 in - Calm Calm - N/A   Mist
3:50 AM 37.4 °F - 35.6 °F 93% 30.04 in 1.5 mi Calm Calm - N/A   Mist
4:20 AM 39.2 °F - 37.4 °F 93% 30.04 in - Calm Calm - N/A   Mist
4:50 AM 39.2 °F - 37.4 °F 93% 30.04 in - Calm Calm - N/A Fog Fog
5:20 AM 37.4 °F - 37.4 °F 100% 30.06 in - Calm Calm - N/A   Mist
5:50 AM 37.4 °F - 37.4 °F 100% 30.06 in 3.1 mi Calm Calm - N/A   Unknown
6:20 AM 37.4 °F - 37.4 °F 100% 30.06 in 6.2 mi Calm Calm - N/A   Unknown
6:50 AM 39.2 °F - 39.2 °F 100% 30.06 in 5.0 mi Calm Calm - N/A   Partly Cloudy
7:20 AM 39.2 °F - 37.4 °F 93% 30.06 in 5.0 mi Calm Calm - N/A   Unknown
7:50 AM 37.4 °F - 37.4 °F 100% 30.06 in 5.0 mi Calm Calm - N/A   Unknown
8:20 AM 37.4 °F - 37.4 °F 100% 30.06 in 5.0 mi Calm Calm - N/A   Unknown
8:50 AM 41.0 °F - 39.2 °F 93% 30.06 in 5.0 mi Calm Calm - N/A   Unknown
9:20 AM 41.0 °F - 39.2 °F 93% 30.09 in 5.0 mi Calm Calm - N/A   Unknown
9:50 AM 42.8 °F - 42.8 °F 100% 30.09 in 5.0 mi Calm Calm - N/A   Unknown
10:20 AM 44.6 °F - 42.8 °F 93% 30.09 in 5.0 mi Calm Calm - N/A   Unknown
10:50 AM 44.6 °F - 42.8 °F 93% 30.09 in 5.0 mi Calm Calm - N/A   Unknown
11:50 AM 46.4 °F - 44.6 °F 93% 30.09 in 5.6 mi WSW 2.3 mph - N/A   Unknown
12:20 PM 48.2 °F - 44.6 °F 87% 30.09 in 5.6 mi Variable 2.3 mph - N/A   Unknown
12:50 PM 48.2 °F - 42.8 °F 82% 30.09 in 5.6 mi SW 2.3 mph - N/A   Partly Cloudy
1:20 PM 48.2 °F - 42.8 °F 82% 30.09 in 6.2 mi Variable 3.5 mph - N/A   Partly Cloudy
1:50 PM 48.2 °F - 42.8 °F 82% 30.09 in 6.2 mi Variable 3.5 mph - N/A   Partly Cloudy
2:20 PM 46.4 °F 44.3 °F 42.8 °F 87% 30.09 in - WSW 4.6 mph - N/A   Clear
2:50 PM 46.4 °F 45.2 °F 42.8 °F 87% 30.06 in - Variable 3.5 mph - N/A   Clear
3:20 PM 46.4 °F 45.2 °F 42.8 °F 87% 30.06 in - Variable 3.5 mph - N/A   Clear
3:50 PM 46.4 °F 44.3 °F 42.8 °F 87% 30.06 in - NW 4.6 mph - N/A   Clear
4:20 PM 46.4 °F - 41.0 °F 81% 30.06 in - NW 2.3 mph - N/A   Clear
4:50 PM 44.6 °F - 41.0 °F 87% 30.06 in 6.2 mi NNW 2.3 mph - N/A   Partly Cloudy
5:20 PM 42.8 °F - 41.0 °F 93% 30.09 in 6.2 mi NW 2.3 mph - N/A   Partly Cloudy
5:50 PM 41.0 °F - 39.2 °F 93% 30.09 in - NW 2.3 mph - N/A   Clear
6:20 PM 41.0 °F 39.0 °F 39.2 °F 93% 30.09 in - WNW 3.5 mph - N/A   Clear
6:50 PM 41.0 °F 39.0 °F 39.2 °F 93% 30.09 in - NW 3.5 mph - N/A   Clear
7:20 PM 42.8 °F 39.3 °F 41.0 °F 93% 30.09 in - NW 5.8 mph - N/A   Clear
7:50 PM 42.8 °F 38.0 °F 41.0 °F 93% 30.09 in 6.2 mi NW 8.1 mph - N/A   Partly Cloudy
8:20 PM 42.8 °F 38.6 °F 41.0 °F 93% 30.09 in 6.2 mi NW 6.9 mph - N/A   Scattered Clouds
8:50 PM 44.6 °F 41.4 °F 42.8 °F 93% 30.09 in 6.2 mi NW 5.8 mph - N/A   Mostly Cloudy
9:20 PM 44.6 °F 40.2 °F 42.8 °F 93% 30.09 in 6.2 mi NW 8.1 mph - N/A   Mostly Cloudy
9:50 PM 44.6 °F 39.2 °F 42.8 °F 93% 30.09 in 6.2 mi NW 10.4 mph - N/A   Overcast
10:20 PM 44.6 °F 39.7 °F 42.8 °F 93% 30.09 in 6.2 mi NW 9.2 mph - N/A   Overcast
10:50 PM 44.6 °F 40.7 °F 42.8 °F 93% 30.09 in 6.2 mi NW 6.9 mph - N/A   Overcast
11:20 PM 44.6 °F 40.2 °F 42.8 °F 93% 30.09 in 5.6 mi NW 8.1 mph - N/A   Overcast
11:50 PM 44.6 °F 41.4 °F 42.8 °F 93% 30.09 in 4.3 mi WNW 5.8 mph - N/A   Mostly Cloudy